Regional Weather Roundup
Issued by NWS

Home | Current Version | Previous Version | Text Only | Print | Product List | Glossary Off
Versions: 1 2 3 4 5 6 7 8 9 10 11 12 13 14 15 16 17 18 19 20 21 22 23 24 25 26 27 28 29 30 31 32 33 34 35 36 37 38 39 40 41 42 43 44 45 46 47 48 49 50

000
ASUS45 KCYS 261210
RWRWY

WYOMING REGIONAL WEATHER ROUNDUP
NATIONAL WEATHER SERVICE CHEYENNE WY
600 AM MDT THU MAR 26 2015

NOTE:  "FAIR" INDICATES FEW OR NO CLOUDS BELOW 12,000 FEET
WITH NO SIGNIFICANT WEATHER AND/OR OBSTRUCTIONS TO VISIBILITY.

WYZ001-261300-
YELLOWSTONE NATIONAL PARK

CITY           SKY/WX    TMP DP  RH WIND       PRES   REMARKS
LK YELLOWSTONE   N/A     23  20  88 CALM      30.35R
6HR MIN TEMP:  21; 6HR MAX TEMP:  26;

W YELLOWSTONE  NOT AVBL

$$
WYZ002>013-054>058-071-098>099-261300-
NORTHERN WYOMING

CITY           SKY/WX    TMP DP  RH WIND       PRES   REMARKS
JACKSON        FAIR      18  16  93 N8        30.37R WCI   7
CODY           CLOUDY    45  21  39 W14G21    30.19S
GREYBULL       CLOUDY    40  26  57 SE5       30.19R
6HR MIN TEMP:  39; 6HR MAX TEMP:  43;

WORLAND        FAIR      29  22  75 S6        30.19S WCI  23
6HR MIN TEMP:  28; 6HR MAX TEMP:  37;

SHERIDAN       CLOUDY    45  30  55 NW16      30.15S
6HR MIN TEMP:  38; 6HR MAX TEMP:  45;

BUFFALO        CLOUDY    38  28  67 S5        30.14F WCI  34
6HR MIN TEMP:  35; 6HR MAX TEMP:  41;

GILLETTE       CLOUDY    39  31  72 NW22G30   30.13S WCI  29
6HR MIN TEMP:  35; 6HR MAX TEMP:  40;

HULETT         CLOUDY    41  30  65 W9G16     30.10S
NEWCASTLE      LGT RAIN  32  32 100 N8        30.14S WCI  25

$$
WYZ014>020-022>026-101>103-261300-
CENTRAL WYOMING

CITY           SKY/WX    TMP DP  RH WIND       PRES   REMARKS
BIG PINEY      FAIR      20  13  74 W5        30.32S WCI  13
6HR MIN TEMP:  16; 6HR MAX TEMP:  25;

PINEDALE       PTSUNNY   23  19  86 NW5       30.31R WCI  17
DUBOIS         FAIR      32  18  55 NW22G29   30.25R WCI  19
LANDER         FAIR      30  16  56 VRB5      30.20S WCI  25
6HR MIN TEMP:  28; 6HR MAX TEMP:  35;

RIVERTON       FAIR      38  18  44 NW17      30.20S WCI  28
6HR MIN TEMP:  38; 6HR MAX TEMP:  40;

CASPER         FAIR      32  20  61 W8        30.19S WCI  25
6HR MIN TEMP:  29; 6HR MAX TEMP:  34;

DOUGLAS        CLOUDY    34  24  67 NW12      30.16S WCI  25
6HR MIN TEMP:  21; 6HR MAX TEMP:  34;


$$
WYZ021-027>030-104>119-261300-
SOUTHERN WYOMING

CITY           SKY/WX    TMP DP  RH WIND       PRES   REMARKS
EVANSTON       FAIR      26  19  74 SW9       30.38F WCI  17
6HR MIN TEMP:  25; 6HR MAX TEMP:  29;

FORT BRIDGER   FAIR      31  22  70 W14       30.39S WCI  21
ROCK SPRINGS   FAIR      29  18  63 W24       30.33R WCI  15
6HR MIN TEMP:  28; 6HR MAX TEMP:  30;

DIXON          FAIR      21  17  83 CALM      30.38S
RAWLINS        FAIR      28  18  66 W18       30.29R WCI  15
6HR MIN TEMP:  28; 6HR MAX TEMP:  31;

SARATOGA       FAIR      30  19  64 W3        30.31R
LARAMIE        MOCLDY    27  15  61 W8        30.21R WCI  19
6HR MIN TEMP:  22; 6HR MAX TEMP:  29;

CHEYENNE       FAIR      33  17  51 NW17G24   30.17R WCI  22
6HR MIN TEMP:  21; 6HR MAX TEMP:  33;

TORRINGTON     CLOUDY    26  23  88 CALM      30.15S
6HR MIN TEMP:  22; 6HR MAX TEMP:  30;

PINE BLUFFS    FAIR      21  19  93 W3        30.17S

$$


USA.gov is the U.S. government's official web portal to all federal, state and local government web resources and services.